Location: Newark
(5.8900°S, 42.6378°W)
Time: 21:14:36
(UTC+00:00)

deb Explorer IX - Pass Details

Date: 29 October 2019
Orbit: 546 x 1105 km, 38.8° (Epoch: 22 November)

Event Time Altitude Azimuth Distance (km) Brightness Sun altitude
Rises 22:16:12 0° 283° (WNW) 3,780 ? -23.1°
Reaches altitude 10° 22:19:17 10° 271° (W) 2,886 ? -23.8°
Maximum altitude 22:25:09 27° 216° (SW) 1,971 ? -25.2°
Drops below altitude 10° 22:31:10 10° 161° (SSE) 2,956 ? -26.6°
Sets 22:34:24 0° 149° (SSE) 3,887 ? -27.4°
